Weather History for Gillette, WY

Change the Weather History Date:

Saturday, August 3, 2013

  Actual Average Record
Temperature  
Mean Temperature 71 °F 72 °F  
Max Temperature 83 °F 88 °F 102 °F (1947)
Min Temperature 59 °F 56 °F 40 °F (1974)
Degree Days  
Heating Degree Days 0 0  
Month to date heating degree days 0 0  
Since 1 June heating degree days 117 161  
Since 1 July heating degree days 0 19  
Cooling Degree Days 6 8  
Month to date cooling degree days 21 24  
Year to date cooling degree days 293 306  
Since 1 June cooling degree days 285 298  
Growing Degree Days 20 (Base 50)    
Moisture  
Dew Point 58 °F    
Average Humidity 70    
Maximum Humidity 97    
Minimum Humidity 42    
Precipitation  
Precipitation T in 0.04 in 1.53 in (2010)
Month to date precipitation 0.37 0.13  
Year to date precipitation 12.81 9.66  
Sea Level Pressure  
Sea Level Pressure 30.04 in    
Wind  
Wind Speed 11 mph (SE)    
Max Wind Speed 31 mph    
Max Gust Speed 40 mph    
Visibility 10 miles    
Events Thunderstorm    
T = Trace of Precipitation, MM = Missing Value Source: NWS Daily Summary

Daily Weather History Graph

Daily Weather History Graph

Search for Another Location

Airport:

Trip Planner

Search our weather history database for the weather conditions in past years. The results will help you decide how hot, cold, wet, or windy it might be!

Date:

Astronomy

Aug. 03, 2013 Rise Set
Actual Time 5:51 AM MDT 8:23 PM MDT
Civil Twilight 5:19 AM MDT 8:56 PM MDT
Nautical Twilight 4:37 AM MDT 9:37 PM MDT
Astronomical Twilight 3:50 AM MDT 10:24 PM MDT
Moon 3:01 AM MDT (8/3) 6:09 PM MDT (8/3)
Length of Visible Light 15h 37m
Length of Day
14h 32m
Waning Crescent, 9% of the Moon is Illuminated
Aug 3
Waning Crescent
Aug 6
New
Aug 14
First Quarter
Aug 20
Full
Aug 28
Last Quarter

Hourly Weather History & Observations

Time (MDT) Temp. Heat Index Dew Point Humidity Pressure Visibility Wind Dir Wind Speed Gust Speed Precip Events Conditions
12:53 AM 62.1 °F - 57.0 °F 84% 29.96 in 10.0 mi Calm Calm - N/A   Partly Cloudy
1:07 AM 60.8 °F - 57.2 °F 88% 30.09 in 10.0 mi Calm Calm - N/A Thunderstorm Clear
1:21 AM 60.8 °F - 57.2 °F 88% 30.09 in 10.0 mi NNW 5.8 mph - N/A Thunderstorm Scattered Clouds
1:42 AM 60.8 °F - 57.2 °F 88% 30.11 in 10.0 mi Calm Calm - N/A   Mostly Cloudy
1:53 AM 60.1 °F - 57.0 °F 90% 29.98 in 10.0 mi Calm Calm - N/A   Mostly Cloudy
2:53 AM 61.0 °F - 57.0 °F 87% 29.98 in 10.0 mi East 4.6 mph - N/A   Mostly Cloudy
3:53 AM 61.0 °F - 57.0 °F 87% 29.98 in 10.0 mi East 3.5 mph - N/A   Overcast
4:04 AM 60.8 °F - 57.2 °F 88% 30.12 in 10.0 mi East 4.6 mph - N/A   Overcast
4:31 AM 60.8 °F - 57.2 °F 88% 30.11 in 10.0 mi East 3.5 mph - N/A   Scattered Clouds
4:53 AM 59.0 °F - 57.0 °F 93% 30.00 in 10.0 mi ENE 5.8 mph - N/A   Partly Cloudy
5:07 AM 60.8 °F - 57.2 °F 88% 30.13 in 10.0 mi ENE 4.6 mph - N/A   Mostly Cloudy
5:53 AM 60.1 °F - 59.0 °F 96% 30.00 in 10.0 mi Calm Calm - N/A   Overcast
6:18 AM 60.8 °F - 57.2 °F 88% 30.14 in 10.0 mi ESE 3.5 mph - N/A   Overcast
6:53 AM 61.0 °F - 59.0 °F 93% 30.04 in 10.0 mi East 3.5 mph - N/A   Mostly Cloudy
7:16 AM 62.6 °F - 59.0 °F 88% 30.15 in 10.0 mi Calm Calm - N/A   Mostly Cloudy
7:41 AM 62.6 °F - 59.0 °F 88% 30.16 in 10.0 mi Calm Calm - N/A   Mostly Cloudy
7:53 AM 62.1 °F - 59.0 °F 90% 30.06 in 10.0 mi Calm Calm - N/A   Mostly Cloudy
8:31 AM 64.4 °F - 55.4 °F 73% 30.17 in 10.0 mi South 9.2 mph - N/A   Overcast
8:53 AM 66.9 °F - 55.9 °F 68% 30.06 in 10.0 mi South 6.9 mph - N/A   Mostly Cloudy
9:53 AM 69.1 °F - 57.0 °F 65% 30.07 in 10.0 mi SSE 11.5 mph - N/A   Overcast
10:53 AM 72.0 °F - 59.0 °F 64% 30.05 in 10.0 mi South 11.5 mph - N/A   Overcast
11:21 AM 73.4 °F - 60.8 °F 65% 30.17 in 10.0 mi SSE 12.7 mph - N/A   Mostly Cloudy
11:53 AM 73.0 °F - 60.1 °F 64% 30.05 in 10.0 mi SE 13.8 mph - N/A   Mostly Cloudy
12:21 PM 73.4 °F - 60.8 °F 65% 30.16 in 10.0 mi South 16.1 mph - N/A   Scattered Clouds
12:53 PM 75.9 °F - 60.1 °F 58% 30.02 in 10.0 mi SE 10.4 mph - N/A   Partly Cloudy
1:53 PM 78.1 °F - 60.1 °F 54% 30.01 in 10.0 mi SSE 15.0 mph 21.9 mph N/A   Mostly Cloudy
2:53 PM 80.1 °F 80.6 °F 57.9 °F 47% 29.98 in 10.0 mi SSE 21.9 mph 27.6 mph N/A   Scattered Clouds
3:53 PM 80.1 °F 80.4 °F 57.0 °F 45% 29.96 in 10.0 mi SE 15.0 mph 25.3 mph N/A   Scattered Clouds
4:53 PM 77.0 °F - 55.9 °F 48% 29.95 in 10.0 mi SSE 15.0 mph - N/A   Clear
5:53 PM 81.0 °F 80.8 °F 55.9 °F 42% 29.91 in 10.0 mi SE 18.4 mph - N/A   Clear
6:53 PM 79.0 °F - 57.0 °F 47% 29.90 in 10.0 mi SE 25.3 mph 34.5 mph N/A   Clear
7:41 PM 73.4 °F - 62.6 °F 69% 30.01 in 10.0 mi SE 16.1 mph 29.9 mph 0.00 in Thunderstorm Partly Cloudy
7:53 PM 72.0 °F - 63.0 °F 73% 29.90 in 10.0 mi SE 11.5 mph 21.9 mph 0.00 in   Partly Cloudy
8:53 PM 71.1 °F - 60.1 °F 68% 29.91 in 10.0 mi South 18.4 mph 29.9 mph N/A   Scattered Clouds
9:53 PM 69.1 °F - 60.1 °F 73% 29.94 in 10.0 mi NE 12.7 mph - N/A   Partly Cloudy
10:53 PM 70.0 °F - 61.0 °F 73% 29.97 in 10.0 mi ESE 10.4 mph - N/A   Mostly Cloudy
11:17 PM 69.8 °F - 60.8 °F 73% 30.10 in 10.0 mi East 9.2 mph - N/A   Overcast
11:53 PM 66.9 °F - 62.1 °F 84% 29.96 in 10.0 mi ESE 10.4 mph - N/A   Partly Cloudy